Weather History for Natchitoches, LA

Change the Weather History Date:

Monday, December 24, 2012

  Actual Average Record
Temperature  
Mean Temperature 55 °F -  
Max Temperature 66 °F 57 °F 82 °F (1955)
Min Temperature 44 °F 37 °F 5 °F (1989)
Degree Days  
Heating Degree Days 10    
Growing Degree Days 5 (Base 50)    
Moisture  
Dew Point 46 °F    
Average Humidity 71    
Maximum Humidity 95    
Minimum Humidity 34    
Precipitation  
Precipitation 0.00 in - - ()
Sea Level Pressure  
Sea Level Pressure 29.89 in    
Wind  
Wind Speed 4 mph (WNW)    
Max Wind Speed 10 mph    
Max Gust Speed 20 mph    
Visibility 10 miles    
Events      
Averages and records for this station are not official NWS values.
T = Trace of Precipitation, MM = Missing Value Source: NWS Daily Summary

Daily Weather History Graph

Daily Weather History Graph

Search for Another Location

Airport:

Trip Planner

Search our weather history database for the weather conditions in past years. The results will help you decide how hot, cold, wet, or windy it might be!

Date:

Astronomy

Dec. 24, 2012 Rise Set
Actual Time 7:09 AM CST 5:14 PM CST
Civil Twilight 6:42 AM CST 5:41 PM CST
Nautical Twilight 6:12 AM CST 6:12 PM CST
Astronomical Twilight 5:42 AM CST 6:41 PM CST
Moon 2:38 PM CST (12/24) 3:53 AM CST (12/24)
Length of Visible Light 10h 58m
Length of Day
10h 04m
Waxing Gibbous, 88% of the Moon is Illuminated
Dec 24
Waxing Gibbous
Dec 28
Full
Jan 4
Last Quarter
Jan 11
New
Jan 18
First Quarter

Hourly Weather History & Observations

Time (CST) Temp. Dew Point Humidity Pressure Visibility Wind Dir Wind Speed Gust Speed Precip Events Conditions
12:15 AM 64.9 °F 62.4 °F 92% 29.87 in 10.0 mi SW 4.6 mph - N/A   Clear
12:35 AM 64.6 °F 62.6 °F 93% 29.86 in 10.0 mi SW 6.9 mph - N/A   Clear
12:55 AM 64.8 °F 62.6 °F 93% 29.86 in 10.0 mi WSW 5.8 mph - N/A   Mostly Cloudy
1:15 AM 64.8 °F 62.6 °F 93% 29.86 in 10.0 mi SW 5.8 mph - N/A   Overcast
1:35 AM 64.8 °F 62.6 °F 93% 29.86 in 10.0 mi WSW 5.8 mph - N/A   Scattered Clouds
1:55 AM 64.4 °F 62.2 °F 93% 29.86 in 10.0 mi WSW 6.9 mph - N/A   Clear
2:15 AM 64.4 °F 62.1 °F 92% 29.86 in 10.0 mi WSW 5.8 mph - N/A   Clear
2:35 AM 64.4 °F 61.7 °F 91% 29.86 in 10.0 mi WSW 5.8 mph - N/A   Clear
2:55 AM 63.9 °F 61.3 °F 91% 29.86 in 10.0 mi WSW 6.9 mph - N/A   Scattered Clouds
3:15 AM 64.4 °F 61.3 °F 90% 29.86 in 10.0 mi West 6.9 mph - N/A   Clear
3:35 AM 64.4 °F 61.3 °F 90% 29.86 in 10.0 mi WSW 4.6 mph - N/A   Mostly Cloudy
3:55 AM 64.0 °F 61.3 °F 91% 29.86 in 10.0 mi West 6.9 mph - N/A   Mostly Cloudy
4:15 AM 63.5 °F 61.0 °F 91% 29.86 in 10.0 mi West 10.4 mph - N/A   Mostly Cloudy
4:35 AM 63.1 °F 60.4 °F 91% 29.87 in 10.0 mi West 8.1 mph - N/A   Overcast
4:55 AM 62.6 °F 59.2 °F 89% 29.87 in 10.0 mi West 10.4 mph 19.6 mph N/A   Mostly Cloudy
5:15 AM 62.1 °F 59.0 °F 90% 29.88 in 10.0 mi NNW 9.2 mph - N/A   Mostly Cloudy
5:35 AM 58.5 °F 51.3 °F 77% 29.90 in 10.0 mi NNW 10.4 mph - N/A   Mostly Cloudy
5:55 AM 56.8 °F 48.4 °F 73% 29.91 in 10.0 mi NNW 6.9 mph - N/A   Mostly Cloudy
6:15 AM 54.1 °F 45.5 °F 73% 29.92 in 10.0 mi WNW 10.4 mph - N/A   Scattered Clouds
6:35 AM 52.5 °F 41.4 °F 66% 29.93 in 10.0 mi NW 3.5 mph - N/A   Clear
6:55 AM 52.5 °F 42.1 °F 68% 29.93 in 10.0 mi Calm Calm - N/A   Clear
7:15 AM 50.7 °F 43.0 °F 75% 29.93 in 10.0 mi Calm Calm - N/A   Clear
7:35 AM 47.5 °F 43.5 °F 86% 29.94 in 10.0 mi Calm Calm - N/A   Clear
7:55 AM 49.8 °F 41.7 °F 74% 29.96 in 10.0 mi Calm Calm - N/A   Clear
8:15 AM 51.3 °F 42.3 °F 71% 29.96 in 10.0 mi Calm Calm - N/A   Clear
8:35 AM 53.6 °F 40.8 °F 62% 29.96 in 10.0 mi West 4.6 mph - N/A   Clear
8:55 AM 54.0 °F 39.0 °F 57% 29.96 in 10.0 mi NW 8.1 mph - N/A   Clear
9:15 AM 54.0 °F 38.7 °F 56% 29.96 in 10.0 mi NNW 6.9 mph - N/A   Clear
9:35 AM 54.9 °F 39.6 °F 56% 29.98 in 10.0 mi NNW 5.8 mph - N/A   Clear
9:55 AM 55.9 °F 39.9 °F 55% 29.98 in 10.0 mi NNW 5.8 mph - N/A   Clear
10:15 AM 55.9 °F 39.6 °F 54% 29.98 in 10.0 mi NNW 5.8 mph - N/A   Clear
10:35 AM 57.4 °F 39.9 °F 52% 29.98 in 10.0 mi NNW 6.9 mph - N/A   Clear
10:55 AM 58.3 °F 40.5 °F 52% 29.98 in 10.0 mi NNW 5.8 mph - N/A   Clear
11:15 AM 59.0 °F 40.8 °F 51% 29.98 in 10.0 mi North 6.9 mph - N/A   Clear
11:35 AM 59.9 °F 40.3 °F 48% 29.96 in 10.0 mi North 5.8 mph - N/A   Clear
11:55 AM 61.0 °F 39.4 °F 45% 29.95 in 10.0 mi NNW 4.6 mph - N/A   Clear
12:15 PM 61.9 °F 40.8 °F 46% 29.94 in 10.0 mi NNW 5.8 mph - N/A   Clear
12:35 PM 62.8 °F 41.4 °F 45% 29.93 in 10.0 mi NW 5.8 mph - N/A   Clear
12:55 PM 63.7 °F 41.2 °F 44% 29.91 in 10.0 mi Calm Calm - N/A   Clear
1:15 PM 63.9 °F 41.0 °F 43% 29.91 in 10.0 mi Calm Calm - N/A   Clear
1:35 PM 64.9 °F 41.7 °F 43% 29.90 in 10.0 mi Calm Calm - N/A   Clear
1:55 PM 66.2 °F 42.1 °F 41% 29.89 in 10.0 mi SSW 3.5 mph - N/A   Clear
2:15 PM 66.2 °F 39.9 °F 38% 29.89 in 10.0 mi Calm Calm - N/A   Clear
2:35 PM 66.2 °F 37.6 °F 35% 29.88 in 10.0 mi Calm Calm - N/A   Clear
2:55 PM 66.4 °F 37.2 °F 34% 29.88 in 10.0 mi Calm Calm - N/A   Clear
3:15 PM 66.7 °F 39.6 °F 37% 29.88 in 10.0 mi East 4.6 mph - N/A   Clear
3:35 PM 66.4 °F 39.7 °F 38% 29.87 in 10.0 mi Calm Calm - N/A   Clear
3:55 PM 66.4 °F 40.5 °F 39% 29.87 in 10.0 mi ESE 3.5 mph - N/A   Clear
4:15 PM 65.7 °F 40.5 °F 40% 29.87 in 10.0 mi Calm Calm - N/A   Clear
4:35 PM 64.4 °F 39.0 °F 39% 29.87 in 3.0 mi Calm Calm - N/A   Haze
4:55 PM 62.8 °F 37.2 °F 39% 29.86 in 10.0 mi Calm Calm - N/A   Clear
5:15 PM 56.1 °F 44.2 °F 64% 29.86 in 10.0 mi Calm Calm - N/A   Clear
5:35 PM 54.0 °F 44.8 °F 71% 29.86 in 10.0 mi Calm Calm - N/A   Clear
5:55 PM 51.3 °F 44.1 °F 76% 29.86 in 10.0 mi NW 3.5 mph - N/A   Clear
6:15 PM 51.4 °F 44.2 °F 76% 29.85 in 10.0 mi Calm Calm - N/A   Clear
6:35 PM 50.0 °F 44.4 °F 81% 29.85 in 10.0 mi Calm Calm - N/A   Clear
6:55 PM 48.2 °F 44.6 °F 87% 29.85 in 10.0 mi Calm Calm - N/A   Clear
7:15 PM 47.7 °F 43.0 °F 84% 29.86 in 10.0 mi Calm Calm - N/A   Clear
7:35 PM 47.1 °F 44.2 °F 90% 29.87 in 10.0 mi Calm Calm - N/A   Clear
7:55 PM 46.4 °F 44.1 °F 92% 29.86 in 10.0 mi Calm Calm - N/A   Clear
8:15 PM 45.5 °F 43.5 °F 93% 29.85 in 10.0 mi Calm Calm - N/A   Clear
8:35 PM 45.5 °F 43.7 °F 93% 29.85 in 10.0 mi Calm Calm - N/A   Clear
8:55 PM 45.1 °F 43.3 °F 93% 29.85 in 10.0 mi Calm Calm - N/A   Clear
9:15 PM 44.6 °F 43.3 °F 95% 29.85 in 10.0 mi Calm Calm - N/A   Clear
9:35 PM 44.2 °F 42.8 °F 95% 29.85 in 10.0 mi Calm Calm - N/A   Clear
9:55 PM 44.6 °F 41.9 °F 90% 29.85 in 10.0 mi Calm Calm - N/A   Clear
10:15 PM 44.6 °F 42.8 °F 93% 29.85 in 10.0 mi Calm Calm - N/A   Clear
10:35 PM 44.6 °F 42.3 °F 91% 29.85 in 10.0 mi Calm Calm - N/A   Clear
10:55 PM 45.9 °F 43.3 °F 91% 29.85 in 10.0 mi Calm Calm - N/A   Clear
11:15 PM 48.2 °F 43.7 °F 84% 29.85 in 10.0 mi Calm Calm - N/A   Clear
11:35 PM 47.8 °F 43.9 °F 86% 29.85 in 10.0 mi Calm Calm - N/A   Clear
11:55 PM 47.8 °F 44.2 °F 87% 29.84 in 10.0 mi Calm Calm - N/A   Clear